Overview Statistics Trail Chart Weather Telemetry Raw packets
 

This is the latest recevied weather packets stored in our database for station/object N4BBA. If no packets are shown the sender has not sent any weather packets the latest 10 day(s).

<< 13 14 15 16 17 18 19 >>
Time Temp. Humidity Pressure Rain* Wind** Luminosity Snow
1777665884 12.22° C 79% 1013.4 hPa 0 mm - 180 W/m² -
1777665581 12.78° C 79% 1013.5 hPa 0 mm - 145 W/m² -
1777665278 12.78° C 79% 1013.6 hPa 0 mm - 165 W/m² -
1777664973 12.78° C 78% 1013.7 hPa 0 mm - 168 W/m² -
1777664669 12.78° C 78% 1013.7 hPa 0 mm - 108 W/m² -
1777664365 12.78° C 77% 1014.1 hPa 0 mm - 88 W/m² -
1777664064 12.78° C 77% 1014.1 hPa 0 mm - 88 W/m² -
1777663761 12.78° C 78% 1014.1 hPa 0 mm - 140 W/m² -
1777663458 12.78° C 78% 1014.1 hPa 0 mm - 244 W/m² -
1777663155 12.78° C 79% 1014.1 hPa 0 mm - 361 W/m² -
1777662853 12.78° C 79% 1014.1 hPa 0 mm - 286 W/m² -
1777662549 12.78° C 80% 1014.1 hPa 0 mm - 273 W/m² -
1777662245 12.78° C 80% 1014.4 hPa 0 mm - 201 W/m² -
1777661940 13.33° C 80% 1014.7 hPa 0 mm - 344 W/m² -
1777661637 12.78° C 81% 1014.5 hPa 0 mm - 464 W/m² -
1777661332 12.78° C 83% 1014.6 hPa 0 mm - 391 W/m² -
1777661029 12.78° C 84% 1014.6 hPa 0 mm - 340 W/m² -
1777660724 12.22° C 84% 1014.8 hPa 0 mm - 486 W/m² -
1777660422 12.22° C 85% 1014.7 hPa 1.27 mm - 412 W/m² -
1777660118 11.11° C 85% 1014.6 hPa 1.27 mm - 346 W/m² -
1777659815 11.11° C 85% 1015.1 hPa 0 mm - 183 W/m² -
1777659512 11.11° C 85% 1015.1 hPa 0 mm - 70 W/m² -
1777659209 10.56° C 85% 1014.7 hPa 0 mm - 95 W/m² -
1777658906 10.56° C 84% 1014.7 hPa 0 mm - 62 W/m² -
1777658602 11.11° C 84% 1014.9 hPa 1.78 mm - 119 W/m² -

* Rain latest hour (hover to see other rain measurements)
** Current wind speed in m/s (hover to see current wind gust speed)